Preview of NWS' New Version of Forecast
This preview is not operational and should not be used for support decisions.

Regional Weather Roundup (RWR)

Issued by National Weather Service (NWS)

                            
000
ASUS46 KPQR 171410
RWROR 

OREGON REGIONAL WEATHER ROUNDUP
NATIONAL WEATHER SERVICE PORTLAND OR
700 AM PDT SAT AUG 17 2019

NOTE: "FAIR" INDICATES FEW OR NO CLOUDS BELOW 12,000 FEET WITH
NO SIGNIFICANT WEATHER AND/OR OBSTRUCTIONS TO VISIBILITY.

ORZ001>013-171500-
NORTHWEST OREGON

  
CITY           SKY/WX    TMP DP  RH WIND       PRES   REMARKS
ASTORIA        CLOUDY    59  58  96 W3        30.02S                  
TILLAMOOK      CLOUDY    61  57  88 CALM      30.05S                  
NEWPORT        CLOUDY    61  54  77 CALM      30.06F                  
PORTLAND       MOCLDY    61  57  87 E3        30.03S                  
VANCOUVER WA   CLOUDY    61  57  87 CALM      30.02F                  
SCAPPOOSE      CLOUDY    62  54  74 N5        30.01F                  
HILLSBORO      CLOUDY    61  53  75 W6        30.02F                  
AURORA         CLOUDY    61  51  70 CALM      30.04S                  
MCMINNVILLE    CLOUDY    59  53  80 CALM      30.03S                  
SALEM          CLOUDY    60  53  77 CALM      30.03R                  
CORVALLIS      CLOUDY    58  53  84 W5        30.04F                  
EUGENE         MOCLDY    56  51  84 CALM      30.04S                  
$$

ORZ021-028-171500-
SOUTHWEST OREGON

  
CITY           SKY/WX    TMP DP  RH WIND       PRES   REMARKS
NORTH BEND     CLEAR     54  52  93 SE5       30.04F                  
BROOKINGS      CLEAR     54  49  83 CALM      29.89S                  
ROSEBURG       CLEAR     59  51  75 NW5       30.02F                  
SEXTON SUMMIT  CLEAR     53  42  66 N14G21    30.04S                  
GRANTS PASS    FAIR      54  46  76 CALM      30.03S                  
MEDFORD        CLEAR     55  45  68 NW3       30.00R                  
$$

ORZ014>016-041-171500-
COLUMBIA GORGE

  
CITY           SKY/WX    TMP DP  RH WIND       PRES   REMARKS
TROUTDALE      CLOUDY    60  56  86 SE5       30.02F FOG              
HOOD RIVER     PTCLDY    61  52  72 NW10      29.98S                  
THE DALLES     CLEAR     63  50  62 NW14      29.94R                  
$$

ORZ029>031-041-044-049-050-061>064-502-503-505>511-171500-
EASTERN OREGON

  
CITY           SKY/WX    TMP DP  RH WIND       PRES   REMARKS
MADRAS         PTCLDY    52  45  76 N3        30.01S                  
REDMOND        PTCLDY    51  38  60 CALM      30.00R                  
BEND           PTCLDY    55  41  58 SW6       30.00S                  
PRINEVILLE     PTCLDY    48  41  76 CALM      30.00S                  
KLAMATH FALLS  CLEAR     44  41  89 CALM      30.04R                  
LAKEVIEW       CLEAR     46  35  65 N5        30.06R                  
HERMISTON      PTCLDY    61  49  64 SW12      29.91R                  
PENDLETON      MOCLDY    60  47  61 W9        29.93R                  
JOHN DAY       CLEAR     52  37  56 E8        30.01S                  
MEACHAM        MOCLDY    45  39  79 CALM      29.98S                  
LA GRANDE      PTSUNNY   56  43  61 MISG      29.96R                  
BAKER CITY     MOSUNNY   49  43  80 CALM      29.97S                  
BURNS          PTCLDY    47  27  45 NE3       30.02R                  
ROME             N/A     51  20  29 S7        29.99R                  
ONTARIO        SUNNY     61  39  44 SW6       29.91R                  
$$